Time,TemperatureF,DewpointF,PressureIn,WindDirection,WindDirectionDegrees,WindSpeedMPH,WindSpeedGustMPH,Humidity,HourlyPrecipIn,Conditions,Clouds,dailyrainin,SoftwareType,DateUTC
2013-01-21 00:00:00,30.7,11.4,29.71,North,0,0.0,0.0,44,0.00,,---,0.00,VWS V14.01,2013-01-21 05:00:00,
2013-01-21 00:02:00,30.7,11.9,29.71,North,0,0.0,0.0,45,0.00,,---,0.00,VWS V14.01,2013-01-21 05:02:00,
2013-01-21 00:03:00,30.7,11.9,29.71,North,0,0.0,0.0,45,0.00,,---,0.00,VWS V14.01,2013-01-21 05:03:00,
2013-01-21 00:08:00,30.6,11.8,29.71,North,0,0.0,0.0,45,0.00,,---,0.00,VWS V14.01,2013-01-21 05:08:00,
2013-01-21 00:13:00,30.6,11.8,29.74,North,0,0.0,0.0,45,0.00,,---,0.00,VWS V14.01,2013-01-21 05:13:00,
2013-01-21 00:18:00,30.4,11.6,29.74,North,0,0.0,0.0,45,0.00,,---,0.00,VWS V14.01,2013-01-21 05:18:00,
2013-01-21 00:23:00,30.4,11.6,29.74,North,0,0.0,0.0,45,0.00,,---,0.00,VWS V14.01,2013-01-21 05:23:00,
2013-01-21 00:28:00,30.2,11.4,29.71,North,0,0.0,0.0,45,0.00,,---,0.00,VWS V14.01,2013-01-21 05:28:00,
2013-01-21 00:33:00,30.4,10.1,29.71,North,0,0.0,0.0,42,0.00,,---,0.00,VWS V14.01,2013-01-21 05:33:00,
2013-01-21 00:38:00,30.4,10.6,29.71,North,0,0.0,0.0,43,0.00,,---,0.00,VWS V14.01,2013-01-21 05:38:00,
2013-01-21 00:43:00,30.0,10.8,29.71,North,0,0.0,0.0,44,0.00,,---,0.00,VWS V14.01,2013-01-21 05:43:00,
2013-01-21 00:48:00,29.7,10.4,29.71,North,0,0.0,0.0,44,0.00,,---,0.00,VWS V14.01,2013-01-21 05:48:00,
2013-01-21 00:53:00,29.7,10.4,29.71,North,0,0.0,0.0,44,0.00,,---,0.00,VWS V14.01,2013-01-21 05:53:00,
2013-01-21 00:58:00,29.5,10.3,29.71,North,0,0.0,0.0,44,0.00,,---,0.00,VWS V14.01,2013-01-21 05:58:00,
2013-01-21 01:03:00,29.1,9.9,29.71,North,0,0.0,0.0,44,0.00,,---,0.00,VWS V14.01,2013-01-21 06:03:00,
2013-01-21 01:08:00,28.8,9.6,29.71,North,0,0.0,0.0,44,0.00,,---,0.00,VWS V14.01,2013-01-21 06:08:00,
2013-01-21 01:13:00,28.6,9.4,29.71,North,0,0.0,0.0,44,0.00,,---,0.00,VWS V14.01,2013-01-21 06:13:00,
2013-01-21 01:18:00,28.4,9.3,29.71,North,0,0.0,0.0,44,0.00,,---,0.00,VWS V14.01,2013-01-21 06:18:00,
2013-01-21 01:23:00,28.2,9.1,29.71,North,0,0.0,0.0,44,0.00,,---,0.00,VWS V14.01,2013-01-21 06:23:00,
2013-01-21 01:28:00,27.9,8.8,29.71,North,0,0.0,0.0,44,0.00,,---,0.00,VWS V14.01,2013-01-21 06:28:00,
2013-01-21 01:33:00,27.9,9.3,29.71,North,0,0.0,0.0,45,0.00,,---,0.00,VWS V14.01,2013-01-21 06:33:00,
2013-01-21 01:38:00,27.7,9.1,29.71,North,0,0.0,0.0,45,0.00,,---,0.00,VWS V14.01,2013-01-21 06:38:00,
2013-01-21 01:43:00,27.3,8.8,29.71,North,0,0.0,0.0,45,0.00,,---,0.00,VWS V14.01,2013-01-21 06:43:00,
2013-01-21 01:48:00,27.3,8.8,29.71,North,0,0.0,0.0,45,0.00,,---,0.00,VWS V14.01,2013-01-21 06:48:00,
2013-01-21 01:53:00,27.3,9.3,29.71,North,0,0.0,0.0,46,0.00,,---,0.00,VWS V14.01,2013-01-21 06:53:00,
2013-01-21 01:58:00,27.3,10.7,29.71,North,0,0.0,0.0,49,0.00,,---,0.00,VWS V14.01,2013-01-21 06:58:00,
2013-01-21 02:03:00,27.1,10.5,29.71,North,0,0.0,0.0,49,0.00,,---,0.00,VWS V14.01,2013-01-21 07:03:00,
2013-01-21 02:08:00,27.3,10.7,29.71,North,0,0.0,0.0,49,0.00,,---,0.00,VWS V14.01,2013-01-21 07:08:00,
2013-01-21 02:13:00,27.1,10.5,29.71,North,0,0.0,0.0,49,0.00,,---,0.00,VWS V14.01,2013-01-21 07:13:00,
2013-01-21 02:18:00,27.0,9.9,29.71,North,0,0.0,0.0,48,0.00,,---,0.00,VWS V14.01,2013-01-21 07:18:00,
2013-01-21 02:23:00,26.8,10.2,29.71,North,0,0.0,0.0,49,0.00,,---,0.00,VWS V14.01,2013-01-21 07:23:00,
2013-01-21 02:28:00,26.6,10.9,29.71,North,0,0.0,0.0,51,0.00,,---,0.00,VWS V14.01,2013-01-21 07:28:00,
2013-01-21 02:33:00,26.6,10.9,29.71,North,0,0.0,0.0,51,0.00,,---,0.00,VWS V14.01,2013-01-21 07:33:00,
2013-01-21 02:38:00,26.4,11.2,29.71,North,0,0.0,0.0,52,0.00,,---,0.00,VWS V14.01,2013-01-21 07:38:00,
2013-01-21 02:43:00,26.6,11.8,29.71,North,0,0.0,0.0,53,0.00,,---,0.00,VWS V14.01,2013-01-21 07:43:00,
2013-01-21 02:48:00,26.4,11.6,29.71,North,0,0.0,0.0,53,0.00,,---,0.00,VWS V14.01,2013-01-21 07:48:00,
2013-01-21 02:53:00,26.6,11.8,29.71,North,0,0.0,0.0,53,0.00,,---,0.00,VWS V14.01,2013-01-21 07:53:00,
2013-01-21 02:58:00,26.4,11.6,29.74,North,0,0.0,0.0,53,0.00,,---,0.00,VWS V14.01,2013-01-21 07:58:00,
2013-01-21 03:03:00,26.4,11.2,29.74,North,0,0.0,0.0,52,0.00,,---,0.00,VWS V14.01,2013-01-21 08:03:00,
2013-01-21 03:08:00,26.6,10.5,29.74,North,0,0.0,0.0,50,0.00,,---,0.00,VWS V14.01,2013-01-21 08:08:00,
2013-01-21 03:13:00,26.8,10.6,29.74,North,0,0.0,0.0,50,0.00,,---,0.00,VWS V14.01,2013-01-21 08:13:00,
2013-01-21 03:18:00,26.8,10.2,29.74,North,0,0.0,0.0,49,0.00,,---,0.00,VWS V14.01,2013-01-21 08:18:00,
2013-01-21 03:23:00,26.6,10.9,29.74,North,0,0.0,0.0,51,0.00,,---,0.00,VWS V14.01,2013-01-21 08:23:00,
2013-01-21 03:28:00,26.6,10.9,29.74,North,0,0.0,0.0,51,0.00,,---,0.00,VWS V14.01,2013-01-21 08:28:00,
2013-01-21 03:33:00,26.6,10.0,29.74,North,0,0.0,0.0,49,0.00,,---,0.00,VWS V14.01,2013-01-21 08:33:00,
2013-01-21 03:38:00,26.6,10.0,29.74,North,0,0.0,0.0,49,0.00,,---,0.00,VWS V14.01,2013-01-21 08:38:00,
2013-01-21 03:43:00,26.6,10.0,29.74,North,0,0.0,0.0,49,0.00,,---,0.00,VWS V14.01,2013-01-21 08:43:00,
2013-01-21 03:48:00,26.6,9.6,29.74,North,0,0.0,0.0,48,0.00,,---,0.00,VWS V14.01,2013-01-21 08:48:00,
2013-01-21 03:53:00,26.8,9.3,29.74,North,0,0.0,0.0,47,0.00,,---,0.00,VWS V14.01,2013-01-21 08:53:00,
2013-01-21 03:58:00,26.8,8.8,29.74,North,0,0.0,0.0,46,0.00,,---,0.00,VWS V14.01,2013-01-21 08:58:00,
2013-01-21 04:03:00,26.8,8.8,29.74,North,0,0.0,0.0,46,0.00,,---,0.00,VWS V14.01,2013-01-21 09:03:00,
2013-01-21 04:08:00,26.8,9.3,29.74,North,0,0.0,0.0,47,0.00,,---,0.00,VWS V14.01,2013-01-21 09:08:00,
2013-01-21 04:13:00,26.8,9.7,29.71,North,0,0.0,0.0,48,0.00,,---,0.00,VWS V14.01,2013-01-21 09:13:00,
2013-01-21 04:18:00,26.8,10.2,29.71,North,0,0.0,0.0,49,0.00,,---,0.00,VWS V14.01,2013-01-21 09:18:00,
2013-01-21 04:23:00,27.0,11.3,29.71,North,0,0.0,0.0,51,0.00,,---,0.00,VWS V14.01,2013-01-21 09:23:00,
2013-01-21 04:28:00,26.8,11.1,29.71,North,0,0.0,0.0,51,0.00,,---,0.00,VWS V14.01,2013-01-21 09:28:00,
2013-01-21 04:33:00,26.8,11.1,29.71,North,0,0.0,0.0,51,0.00,,---,0.00,VWS V14.01,2013-01-21 09:33:00,
2013-01-21 04:38:00,26.8,11.1,29.71,North,0,0.0,0.0,51,0.00,,---,0.00,VWS V14.01,2013-01-21 09:38:00,
2013-01-21 04:43:00,26.8,11.1,29.71,North,0,0.0,0.0,51,0.00,,---,0.00,VWS V14.01,2013-01-21 09:43:00,
2013-01-21 04:48:00,26.8,10.2,29.71,North,0,0.0,0.0,49,0.00,,---,0.00,VWS V14.01,2013-01-21 09:48:00,
2013-01-21 04:53:00,26.8,10.2,29.74,North,0,0.0,0.0,49,0.00,,---,0.00,VWS V14.01,2013-01-21 09:53:00,
2013-01-21 04:58:00,26.8,10.2,29.74,North,0,0.0,0.0,49,0.00,,---,0.00,VWS V14.01,2013-01-21 09:58:00,
2013-01-21 05:03:00,26.6,9.6,29.74,North,0,0.0,0.0,48,0.00,,---,0.00,VWS V14.01,2013-01-21 10:03:00,
2013-01-21 05:08:00,26.6,10.0,29.74,North,0,0.0,0.0,49,0.00,,---,0.00,VWS V14.01,2013-01-21 10:08:00,
2013-01-21 05:13:00,26.6,10.9,29.74,North,0,0.0,0.0,51,0.00,,---,0.00,VWS V14.01,2013-01-21 10:13:00,
2013-01-21 05:18:00,26.4,11.2,29.74,North,0,0.0,0.0,52,0.00,,---,0.00,VWS V14.01,2013-01-21 10:18:00,
2013-01-21 05:23:00,26.4,11.2,29.74,North,0,0.0,0.0,52,0.00,,---,0.00,VWS V14.01,2013-01-21 10:23:00,
2013-01-21 05:28:00,26.4,10.8,29.74,North,0,0.0,0.0,51,0.00,,---,0.00,VWS V14.01,2013-01-21 10:28:00,
2013-01-21 05:33:00,26.4,10.8,29.74,North,0,0.0,0.0,51,0.00,,---,0.00,VWS V14.01,2013-01-21 10:33:00,
2013-01-21 05:38:00,26.4,10.3,29.74,North,0,0.0,0.0,50,0.00,,---,0.00,VWS V14.01,2013-01-21 10:38:00,
2013-01-21 05:43:00,26.2,10.6,29.71,North,0,0.0,0.0,51,0.00,,---,0.00,VWS V14.01,2013-01-21 10:43:00,
2013-01-21 05:48:00,26.2,10.6,29.71,North,0,0.0,0.0,51,0.00,,---,0.00,VWS V14.01,2013-01-21 10:48:00,
2013-01-21 05:53:00,26.2,11.0,29.71,North,0,0.0,0.0,52,0.00,,---,0.00,VWS V14.01,2013-01-21 10:53:00,
2013-01-21 05:58:00,26.1,10.9,29.74,North,0,0.0,0.0,52,0.00,,---,0.00,VWS V14.01,2013-01-21 10:58:00,
2013-01-21 06:03:00,26.1,11.3,29.74,North,0,0.0,0.0,53,0.00,,---,0.00,VWS V14.01,2013-01-21 11:03:00,
2013-01-21 06:08:00,25.9,11.1,29.74,North,0,0.0,0.0,53,0.00,,---,0.00,VWS V14.01,2013-01-21 11:08:00,
2013-01-21 06:13:00,25.7,10.9,29.74,North,0,0.0,0.0,53,0.00,,---,0.00,VWS V14.01,2013-01-21 11:13:00,
2013-01-21 06:18:00,25.5,10.8,29.74,North,0,0.0,0.0,53,0.00,,---,0.00,VWS V14.01,2013-01-21 11:18:00,
2013-01-21 06:23:00,25.3,10.6,29.74,North,0,0.0,0.0,53,0.00,,---,0.00,VWS V14.01,2013-01-21 11:23:00,
2013-01-21 06:28:00,25.3,10.2,29.74,North,0,0.0,0.0,52,0.00,,---,0.00,VWS V14.01,2013-01-21 11:28:00,
2013-01-21 06:33:00,25.2,10.0,29.74,North,0,0.0,0.0,52,0.00,,---,0.00,VWS V14.01,2013-01-21 11:33:00,
2013-01-21 06:38:00,25.2,10.0,29.74,North,0,0.0,0.0,52,0.00,,---,0.00,VWS V14.01,2013-01-21 11:38:00,
2013-01-21 06:43:00,25.2,10.9,29.74,North,0,0.0,0.0,54,0.00,,---,0.00,VWS V14.01,2013-01-21 11:43:00,
2013-01-21 06:48:00,25.0,10.7,29.74,North,0,0.0,0.0,54,0.00,,---,0.00,VWS V14.01,2013-01-21 11:48:00,
2013-01-21 06:53:00,25.0,11.1,29.74,North,0,0.0,0.0,55,0.00,,---,0.00,VWS V14.01,2013-01-21 11:53:00,
2013-01-21 06:58:00,25.0,11.5,29.74,North,0,0.0,0.0,56,0.00,,---,0.00,VWS V14.01,2013-01-21 11:58:00,
2013-01-21 07:03:00,25.0,11.1,29.74,North,0,0.0,0.0,55,0.00,,---,0.00,VWS V14.01,2013-01-21 12:03:00,
2013-01-21 07:08:00,25.0,11.5,29.74,North,0,0.0,0.0,56,0.00,,---,0.00,VWS V14.01,2013-01-21 12:08:00,
2013-01-21 07:13:00,24.6,11.2,29.76,North,0,0.0,0.0,56,0.00,,---,0.00,VWS V14.01,2013-01-21 12:13:00,
2013-01-21 07:18:00,24.4,11.0,29.76,North,0,0.0,0.0,56,0.00,,---,0.00,VWS V14.01,2013-01-21 12:18:00,
2013-01-21 07:23:00,24.4,11.0,29.76,North,0,0.0,0.0,56,0.00,,---,0.00,VWS V14.01,2013-01-21 12:23:00,
2013-01-21 07:28:00,24.1,11.1,29.74,North,0,0.0,0.0,57,0.00,,---,0.00,VWS V14.01,2013-01-21 12:28:00,
2013-01-21 07:33:00,24.1,11.1,29.74,North,0,0.0,0.0,57,0.00,,---,0.00,VWS V14.01,2013-01-21 12:33:00,
2013-01-21 07:38:00,23.9,10.9,29.74,North,0,0.0,0.0,57,0.00,,---,0.00,VWS V14.01,2013-01-21 12:38:00,
2013-01-21 07:43:00,23.9,10.9,29.74,North,0,0.0,0.0,57,0.00,,---,0.00,VWS V14.01,2013-01-21 12:43:00,
2013-01-21 07:48:00,23.7,11.1,29.74,North,0,0.0,0.0,58,0.00,,---,0.00,VWS V14.01,2013-01-21 12:48:00,
2013-01-21 07:53:00,23.9,11.7,29.74,North,0,0.0,0.0,59,0.00,,---,0.00,VWS V14.01,2013-01-21 12:53:00,
2013-01-21 07:58:00,23.9,11.7,29.74,North,0,0.0,0.0,59,0.00,,---,0.00,VWS V14.01,2013-01-21 12:58:00,
2013-01-21 08:03:00,23.9,11.7,29.74,North,0,0.0,0.0,59,0.00,,---,0.00,VWS V14.01,2013-01-21 13:03:00,
2013-01-21 08:08:00,23.7,11.5,29.74,North,0,0.0,0.0,59,0.00,,---,0.00,VWS V14.01,2013-01-21 13:08:00,
2013-01-21 08:13:00,23.9,11.7,29.74,North,0,0.0,0.0,59,0.00,,---,0.00,VWS V14.01,2013-01-21 13:13:00,
2013-01-21 08:18:00,24.3,12.0,29.74,North,0,0.0,0.0,59,0.00,,---,0.00,VWS V14.01,2013-01-21 13:18:00,
2013-01-21 08:23:00,24.4,12.6,29.74,North,0,0.0,0.0,60,0.00,,---,0.00,VWS V14.01,2013-01-21 13:23:00,
2013-01-21 08:28:00,24.8,12.9,29.74,North,0,0.0,0.0,60,0.00,,---,0.00,VWS V14.01,2013-01-21 13:28:00,
2013-01-21 08:33:00,25.2,13.2,29.74,North,0,0.0,0.0,60,0.00,,---,0.00,VWS V14.01,2013-01-21 13:33:00,
2013-01-21 08:38:00,25.7,14.1,29.74,North,0,0.0,0.0,61,0.00,,---,0.00,VWS V14.01,2013-01-21 13:38:00,
2013-01-21 08:43:00,26.6,15.4,29.74,North,0,0.0,0.0,62,0.00,,---,0.00,VWS V14.01,2013-01-21 13:43:00,
2013-01-21 08:48:00,27.5,15.8,29.74,North,0,0.0,0.0,61,0.00,,---,0.00,VWS V14.01,2013-01-21 13:48:00,
2013-01-21 08:53:00,28.6,16.5,29.74,North,0,0.0,0.0,60,0.00,,---,0.00,VWS V14.01,2013-01-21 13:53:00,
2013-01-21 08:58:00,29.1,16.2,29.74,North,0,0.0,0.0,58,0.00,,---,0.00,VWS V14.01,2013-01-21 13:58:00,
2013-01-21 09:03:00,29.7,15.9,29.74,North,0,0.0,0.0,56,0.00,,---,0.00,VWS V14.01,2013-01-21 14:03:00,
2013-01-21 09:08:00,30.6,15.5,29.74,North,0,0.0,0.0,53,0.00,,---,0.00,VWS V14.01,2013-01-21 14:08:00,
2013-01-21 09:13:00,31.6,15.6,29.74,North,0,0.0,0.0,51,0.00,,---,0.00,VWS V14.01,2013-01-21 14:13:00,
2013-01-21 09:18:00,33.1,15.5,29.74,North,0,0.0,0.0,48,0.00,,---,0.00,VWS V14.01,2013-01-21 14:18:00,
2013-01-21 09:23:00,34.0,14.4,29.74,North,0,0.0,0.0,44,0.00,,---,0.00,VWS V14.01,2013-01-21 14:23:00,
2013-01-21 09:28:00,34.9,13.6,29.71,North,0,0.0,0.0,41,0.00,,---,0.00,VWS V14.01,2013-01-21 14:28:00,
2013-01-21 09:33:00,36.0,13.4,29.71,North,0,0.0,0.0,39,0.00,,---,0.00,VWS V14.01,2013-01-21 14:33:00,
2013-01-21 09:38:00,36.7,12.3,29.71,NE,45,0.0,0.0,36,0.00,,---,0.00,VWS V14.01,2013-01-21 14:38:00,
2013-01-21 09:43:00,37.0,11.3,29.71,ENE,68,0.0,0.0,34,0.00,,---,0.00,VWS V14.01,2013-01-21 14:43:00,
2013-01-21 09:48:00,37.8,10.6,29.71,South,180,0.0,0.0,32,0.00,,---,0.00,VWS V14.01,2013-01-21 14:48:00,
2013-01-21 09:53:00,37.9,10.7,29.71,South,180,0.0,0.0,32,0.00,,---,0.00,VWS V14.01,2013-01-21 14:53:00,
2013-01-21 09:58:00,39.0,11.0,29.71,South,180,0.0,0.0,31,0.00,,---,0.00,VWS V14.01,2013-01-21 14:58:00,
2013-01-21 10:03:00,39.2,11.1,29.71,South,180,2.7,2.7,31,0.00,,---,0.00,VWS V14.01,2013-01-21 15:03:00,
2013-01-21 10:08:00,39.2,10.4,29.71,ENE,68,0.0,0.0,30,0.00,,---,0.00,VWS V14.01,2013-01-21 15:08:00,
2013-01-21 10:13:00,39.0,11.0,29.71,ENE,68,0.0,0.0,31,0.00,,---,0.00,VWS V14.01,2013-01-21 15:13:00,
2013-01-21 10:18:00,39.4,10.5,29.71,East,90,0.0,3.6,30,0.00,,---,0.00,VWS V14.01,2013-01-21 15:18:00,
2013-01-21 10:23:00,39.2,10.4,29.71,East,90,3.6,3.6,30,0.00,,---,0.00,VWS V14.01,2013-01-21 15:23:00,
2013-01-21 10:28:00,39.6,10.7,29.71,East,90,2.7,2.7,30,0.00,,---,0.00,VWS V14.01,2013-01-21 15:28:00,
2013-01-21 10:33:00,39.9,11.0,29.71,East,90,0.0,0.0,30,0.00,,---,0.00,VWS V14.01,2013-01-21 15:33:00,
2013-01-21 10:38:00,39.9,11.0,29.71,South,180,3.1,5.8,30,0.00,,---,0.00,VWS V14.01,2013-01-21 15:38:00,
2013-01-21 10:43:00,39.9,11.0,29.71,South,180,2.2,2.7,30,0.00,,---,0.00,VWS V14.01,2013-01-21 15:43:00,
2013-01-21 10:48:00,40.3,11.3,29.71,South,180,3.1,3.1,30,0.00,,---,0.00,VWS V14.01,2013-01-21 15:48:00,
2013-01-21 10:53:00,40.3,10.6,29.71,South,180,0.0,0.0,29,0.00,,---,0.00,VWS V14.01,2013-01-21 15:53:00,
2013-01-21 10:58:00,40.8,11.0,29.71,South,180,2.2,2.2,29,0.00,,---,0.00,VWS V14.01,2013-01-21 15:58:00,
2013-01-21 11:03:00,41.9,12.0,29.71,South,180,0.0,0.0,29,0.00,,---,0.00,VWS V14.01,2013-01-21 16:03:00,
2013-01-21 11:08:00,42.3,12.3,29.71,South,180,3.6,3.6,29,0.00,,---,0.00,VWS V14.01,2013-01-21 16:08:00,
2013-01-21 11:13:00,42.6,12.6,29.68,East,90,4.9,4.9,29,0.00,,---,0.00,VWS V14.01,2013-01-21 16:13:00,
2013-01-21 11:18:00,42.4,11.7,29.68,South,180,0.0,2.2,28,0.00,,---,0.00,VWS V14.01,2013-01-21 16:18:00,
2013-01-21 11:23:00,43.3,12.4,29.68,South,180,0.0,3.1,28,0.00,,---,0.00,VWS V14.01,2013-01-21 16:23:00,
2013-01-21 11:28:00,43.2,12.3,29.68,South,180,2.2,3.1,28,0.00,,---,0.00,VWS V14.01,2013-01-21 16:28:00,
2013-01-21 11:33:00,43.7,12.8,29.68,South,180,3.6,3.6,28,0.00,,---,0.00,VWS V14.01,2013-01-21 16:33:00,
2013-01-21 11:38:00,44.8,12.9,29.68,NNW,338,3.1,3.1,27,0.00,,---,0.00,VWS V14.01,2013-01-21 16:38:00,
2013-01-21 11:43:00,44.1,10.5,29.68,WNW,292,0.0,0.0,25,0.00,,---,0.00,VWS V14.01,2013-01-21 16:43:00,
2013-01-21 11:48:00,45.9,13.8,29.68,South,180,0.0,0.0,27,0.00,,---,0.00,VWS V14.01,2013-01-21 16:48:00,
2013-01-21 11:52:00,45.7,11.9,29.68,West,270,4.9,4.9,25,0.00,,---,0.00,VWS V14.01,2013-01-21 16:52:00,
2013-01-21 11:57:00,46.0,12.2,29.65,South,180,0.0,2.2,25,0.00,,---,0.00,VWS V14.01,2013-01-21 16:57:00,
2013-01-21 12:02:00,46.0,12.2,29.65,South,180,4.0,4.0,25,0.00,,---,0.00,VWS V14.01,2013-01-21 17:02:00,
2013-01-21 12:08:00,45.5,8.9,29.65,NW,315,3.1,3.1,22,0.00,,---,0.00,VWS V14.01,2013-01-21 17:08:00,
2013-01-21 12:13:00,46.0,9.3,29.62,WNW,292,2.2,2.7,22,0.00,,---,0.00,VWS V14.01,2013-01-21 17:13:00,
2013-01-21 12:18:00,46.2,9.5,29.62,South,180,0.0,0.0,22,0.00,,---,0.00,VWS V14.01,2013-01-21 17:18:00,
2013-01-21 12:22:00,45.9,9.2,29.62,South,180,2.7,2.7,22,0.00,,---,0.00,VWS V14.01,2013-01-21 17:22:00,
2013-01-21 12:27:00,45.9,9.2,29.62,WNW,292,2.7,2.7,22,0.00,,---,0.00,VWS V14.01,2013-01-21 17:27:00,
2013-01-21 12:32:00,45.7,9.0,29.62,WNW,292,3.1,3.1,22,0.00,,---,0.00,VWS V14.01,2013-01-21 17:32:00,
2013-01-21 12:37:00,45.9,9.2,29.62,WNW,292,0.0,0.0,22,0.00,,---,0.00,VWS V14.01,2013-01-21 17:37:00,
2013-01-21 12:42:00,46.8,9.9,29.59,South,180,3.6,3.6,22,0.00,,---,0.00,VWS V14.01,2013-01-21 17:42:00,
2013-01-21 12:47:00,46.9,10.1,29.59,South,180,3.6,3.6,22,0.00,,---,0.00,VWS V14.01,2013-01-21 17:47:00,
2013-01-21 12:52:00,46.8,9.9,29.59,South,180,0.0,0.0,22,0.00,,---,0.00,VWS V14.01,2013-01-21 17:52:00,
2013-01-21 12:57:00,46.6,9.8,29.59,South,180,0.0,0.0,22,0.00,,---,0.00,VWS V14.01,2013-01-21 17:57:00,
2013-01-21 13:02:00,46.9,10.1,29.59,West,270,0.0,0.0,22,0.00,,---,0.00,VWS V14.01,2013-01-21 18:02:00,
2013-01-21 13:07:00,47.3,10.4,29.59,WNW,292,0.0,0.0,22,0.00,,---,0.00,VWS V14.01,2013-01-21 18:07:00,
2013-01-21 13:12:00,47.1,7.0,29.59,NNW,338,3.1,3.1,19,0.00,,---,0.00,VWS V14.01,2013-01-21 18:12:00,
2013-01-21 13:18:00,47.1,7.0,29.59,NW,315,3.6,3.6,19,0.00,,---,0.00,VWS V14.01,2013-01-21 18:18:00,
2013-01-21 13:23:00,47.7,7.4,29.59,West,270,3.1,3.1,19,0.00,,---,0.00,VWS V14.01,2013-01-21 18:23:00,
2013-01-21 13:28:00,49.1,8.6,29.56,NW,315,3.6,4.0,19,0.00,,---,0.00,VWS V14.01,2013-01-21 18:28:00,
2013-01-21 13:33:00,49.6,9.1,29.56,WNW,292,3.6,3.6,19,0.00,,---,0.00,VWS V14.01,2013-01-21 18:33:00,
2013-01-21 13:37:00,50.2,9.5,29.56,SSW,202,5.8,5.8,19,0.00,,---,0.00,VWS V14.01,2013-01-21 18:37:00,
2013-01-21 13:42:00,50.2,9.5,29.56,WNW,292,6.3,6.3,19,0.00,,---,0.00,VWS V14.01,2013-01-21 18:42:00,
2013-01-21 13:47:00,49.8,9.2,29.56,SW,225,3.1,4.0,19,0.00,,---,0.00,VWS V14.01,2013-01-21 18:47:00,
2013-01-21 13:52:00,50.0,9.4,29.56,SW,225,8.1,8.1,19,0.00,,---,0.00,VWS V14.01,2013-01-21 18:52:00,
2013-01-21 13:57:00,50.4,9.7,29.53,SW,225,2.7,2.7,19,0.00,,---,0.00,VWS V14.01,2013-01-21 18:57:00,
2013-01-21 14:02:00,51.4,10.6,29.53,WSW,248,3.1,3.1,19,0.00,,---,0.00,VWS V14.01,2013-01-21 19:02:00,
2013-01-21 14:07:00,52.7,10.4,29.53,ENE,68,3.6,4.0,18,0.00,,---,0.00,VWS V14.01,2013-01-21 19:07:00,
2013-01-21 14:12:00,52.2,10.0,29.53,NW,315,8.3,8.3,18,0.00,,---,0.00,VWS V14.01,2013-01-21 19:12:00,
2013-01-21 14:17:00,51.6,10.7,29.53,West,270,2.7,2.7,19,0.00,,---,0.00,VWS V14.01,2013-01-21 19:17:00,
2013-01-21 14:22:00,52.3,10.1,29.53,NE,45,0.0,2.7,18,0.00,,---,0.00,VWS V14.01,2013-01-21 19:22:00,
2013-01-21 14:27:00,52.7,10.4,29.50,East,90,2.7,2.7,18,0.00,,---,0.00,VWS V14.01,2013-01-21 19:27:00,
2013-01-21 14:32:00,52.0,9.8,29.50,NW,315,0.0,0.0,18,0.00,,---,0.00,VWS V14.01,2013-01-21 19:32:00,
2013-01-21 14:37:00,53.1,10.7,29.50,South,180,2.7,3.6,18,0.00,,---,0.00,VWS V14.01,2013-01-21 19:37:00,
2013-01-21 14:42:00,52.5,10.2,29.50,NW,315,3.1,4.0,18,0.00,,---,0.00,VWS V14.01,2013-01-21 19:42:00,
2013-01-21 14:47:00,53.2,10.9,29.50,South,180,0.0,0.0,18,0.00,,---,0.00,VWS V14.01,2013-01-21 19:47:00,
2013-01-21 14:52:00,52.9,10.6,29.50,NNW,338,8.1,8.1,18,0.00,,---,0.00,VWS V14.01,2013-01-21 19:52:00,
2013-01-21 14:57:00,51.8,9.7,29.47,West,270,6.3,6.3,18,0.00,,---,0.00,VWS V14.01,2013-01-21 19:57:00,
2013-01-21 15:02:00,51.8,9.7,29.47,West,270,4.9,5.8,18,0.00,,---,0.00,VWS V14.01,2013-01-21 20:02:00,
2013-01-21 15:07:00,52.2,10.0,29.47,WNW,292,5.4,5.4,18,0.00,,---,0.00,VWS V14.01,2013-01-21 20:07:00,
2013-01-21 15:12:00,52.9,10.6,29.47,West,270,2.7,3.1,18,0.00,,---,0.00,VWS V14.01,2013-01-21 20:12:00,
2013-01-21 15:17:00,53.4,11.0,29.47,SW,225,0.0,0.0,18,0.00,,---,0.00,VWS V14.01,2013-01-21 20:17:00,
2013-01-21 15:22:00,52.5,7.6,29.47,West,270,6.3,6.3,16,0.00,,---,0.00,VWS V14.01,2013-01-21 20:22:00,
2013-01-21 15:27:00,53.1,10.7,29.47,SSW,202,2.7,3.6,18,0.00,,---,0.00,VWS V14.01,2013-01-21 20:27:00,
2013-01-21 15:32:00,53.6,11.1,29.47,South,180,0.0,0.0,18,0.00,,---,0.00,VWS V14.01,2013-01-21 20:32:00,
2013-01-21 15:37:00,52.9,10.6,29.47,WNW,292,0.0,0.0,18,0.00,,---,0.00,VWS V14.01,2013-01-21 20:37:00,
2013-01-21 15:42:00,52.9,10.6,29.47,NW,315,0.0,0.0,18,0.00,,---,0.00,VWS V14.01,2013-01-21 20:42:00,
2013-01-21 15:47:00,52.5,7.6,29.47,WSW,248,0.0,0.0,16,0.00,,---,0.00,VWS V14.01,2013-01-21 20:47:00,
2013-01-21 15:52:00,52.7,10.4,29.47,NW,315,0.0,0.0,18,0.00,,---,0.00,VWS V14.01,2013-01-21 20:52:00,
2013-01-21 15:57:00,52.9,10.6,29.44,NW,315,0.0,0.0,18,0.00,,---,0.00,VWS V14.01,2013-01-21 20:57:00,
2013-01-21 16:02:00,53.6,11.1,29.44,SSW,202,0.0,4.0,18,0.00,,---,0.00,VWS V14.01,2013-01-21 21:02:00,
2013-01-21 16:07:00,52.9,10.6,29.44,WNW,292,0.0,2.2,18,0.00,,---,0.00,VWS V14.01,2013-01-21 21:07:00,
2013-01-21 16:12:00,52.5,10.2,29.44,NNW,338,0.0,0.0,18,0.00,,---,0.00,VWS V14.01,2013-01-21 21:12:00,
2013-01-21 16:17:00,52.2,10.0,29.44,NNW,338,0.0,0.0,18,0.00,,---,0.00,VWS V14.01,2013-01-21 21:17:00,
2013-01-21 16:22:00,51.8,9.7,29.44,SSW,202,0.0,2.2,18,0.00,,---,0.00,VWS V14.01,2013-01-21 21:22:00,
2013-01-21 16:27:00,51.8,9.7,29.44,WSW,248,2.7,4.0,18,0.00,,---,0.00,VWS V14.01,2013-01-21 21:27:00,
2013-01-21 16:32:00,51.6,10.7,29.44,SSW,202,0.0,0.0,19,0.00,,---,0.00,VWS V14.01,2013-01-21 21:32:00,
2013-01-21 16:37:00,51.1,10.3,29.44,SSW,202,0.0,0.0,19,0.00,,---,0.00,VWS V14.01,2013-01-21 21:37:00,
2013-01-21 16:42:00,50.7,10.0,29.44,SSW,202,0.0,0.0,19,0.00,,---,0.00,VWS V14.01,2013-01-21 21:42:00,
2013-01-21 16:47:00,50.2,9.5,29.44,SSW,202,0.0,0.0,19,0.00,,---,0.00,VWS V14.01,2013-01-21 21:47:00,
2013-01-21 16:52:00,49.5,8.9,29.44,SSW,202,0.0,0.0,19,0.00,,---,0.00,VWS V14.01,2013-01-21 21:52:00,
2013-01-21 16:57:00,49.1,8.6,29.44,SSW,202,0.0,0.0,19,0.00,,---,0.00,VWS V14.01,2013-01-21 21:57:00,
2013-01-21 17:02:00,48.7,8.3,29.44,SSW,202,0.0,0.0,19,0.00,,---,0.00,VWS V14.01,2013-01-21 22:02:00,
2013-01-21 17:07:00,48.4,8.0,29.44,SSW,202,0.0,0.0,19,0.00,,---,0.00,VWS V14.01,2013-01-21 22:07:00,
2013-01-21 17:12:00,48.0,7.7,29.44,WNW,292,0.0,0.0,19,0.00,,---,0.00,VWS V14.01,2013-01-21 22:12:00,
2013-01-21 17:17:00,47.7,7.4,29.44,WNW,292,0.0,0.0,19,0.00,,---,0.00,VWS V14.01,2013-01-21 22:17:00,
2013-01-21 17:22:00,47.7,7.4,29.44,WNW,292,0.0,0.0,19,0.00,,---,0.00,VWS V14.01,2013-01-21 22:22:00,
2013-01-21 17:27:00,48.0,7.7,29.44,NNW,338,0.0,3.1,19,0.00,,---,0.00,VWS V14.01,2013-01-21 22:27:00,
2013-01-21 17:32:00,48.2,4.1,29.44,West,270,3.6,3.6,16,0.00,,---,0.00,VWS V14.01,2013-01-21 22:32:00,
2013-01-21 17:37:00,48.4,4.3,29.44,WNW,292,0.0,4.0,16,0.00,,---,0.00,VWS V14.01,2013-01-21 22:37:00,
2013-01-21 17:42:00,48.7,4.6,29.47,WNW,292,0.0,5.8,16,0.00,,---,0.00,VWS V14.01,2013-01-21 22:42:00,
2013-01-21 17:47:00,48.7,4.6,29.47,West,270,2.2,2.7,16,0.00,,---,0.00,VWS V14.01,2013-01-21 22:47:00,
2013-01-21 17:52:00,48.6,4.4,29.47,West,270,3.6,4.0,16,0.00,,---,0.00,VWS V14.01,2013-01-21 22:52:00,
2013-01-21 17:57:00,48.4,4.3,29.47,West,270,2.7,2.7,16,0.00,,---,0.00,VWS V14.01,2013-01-21 22:57:00,
2013-01-21 18:02:00,48.6,4.4,29.47,WNW,292,3.1,10.5,16,0.00,,---,0.00,VWS V14.01,2013-01-21 23:02:00,
2013-01-21 18:07:00,48.2,4.1,29.47,WNW,292,0.0,0.0,16,0.00,,---,0.00,VWS V14.01,2013-01-21 23:07:00,
2013-01-21 18:12:00,47.7,5.0,29.47,WNW,292,5.8,5.8,17,0.00,,---,0.00,VWS V14.01,2013-01-21 23:12:00,
2013-01-21 18:17:00,47.5,4.8,29.47,North,0,0.0,0.0,17,0.00,,---,0.00,VWS V14.01,2013-01-21 23:17:00,
2013-01-21 18:22:00,47.3,4.7,29.47,West,270,0.0,0.0,17,0.00,,---,0.00,VWS V14.01,2013-01-21 23:22:00,
2013-01-21 18:27:00,47.1,4.6,29.47,West,270,3.1,3.1,17,0.00,,---,0.00,VWS V14.01,2013-01-21 23:27:00,
2013-01-21 18:32:00,47.1,4.6,29.47,WNW,292,0.0,3.6,17,0.00,,---,0.00,VWS V14.01,2013-01-21 23:32:00,
2013-01-21 18:37:00,46.8,4.3,29.47,NW,315,2.2,2.7,17,0.00,,---,0.00,VWS V14.01,2013-01-21 23:37:00,
2013-01-21 18:42:00,46.0,3.7,29.50,North,0,0.0,0.0,17,0.00,,---,0.00,VWS V14.01,2013-01-21 23:42:00,
2013-01-21 18:47:00,46.2,3.8,29.50,NNW,338,4.9,4.9,17,0.00,,---,0.00,VWS V14.01,2013-01-21 23:47:00,
2013-01-21 18:52:00,46.0,3.7,29.50,WNW,292,4.9,8.1,17,0.00,,---,0.00,VWS V14.01,2013-01-21 23:52:00,
2013-01-21 18:57:00,45.9,3.5,29.50,NW,315,0.0,4.9,17,0.00,,---,0.00,VWS V14.01,2013-01-21 23:57:00,
2013-01-21 19:02:00,45.5,3.2,29.50,NNW,338,3.6,4.0,17,0.00,,---,0.00,VWS V14.01,2013-01-22 00:02:00,
2013-01-21 19:07:00,45.3,3.1,29.50,North,0,2.7,4.0,17,0.00,,---,0.00,VWS V14.01,2013-01-22 00:07:00,
2013-01-21 19:12:00,45.1,2.9,29.50,WNW,292,3.6,3.6,17,0.00,,---,0.00,VWS V14.01,2013-01-22 00:12:00,
2013-01-21 19:17:00,45.1,2.9,29.50,West,270,0.0,5.8,17,0.00,,---,0.00,VWS V14.01,2013-01-22 00:17:00,
2013-01-21 19:22:00,44.8,2.6,29.50,North,0,4.0,4.0,17,0.00,,---,0.00,VWS V14.01,2013-01-22 00:22:00,
2013-01-21 19:27:00,44.2,3.4,29.50,North,0,0.0,0.0,18,0.00,,---,0.00,VWS V14.01,2013-01-22 00:27:00,
2013-01-21 19:32:00,43.9,3.1,29.50,NNE,22,0.0,3.1,18,0.00,,---,0.00,VWS V14.01,2013-01-22 00:32:00,
2013-01-21 19:37:00,42.8,2.2,29.50,NNE,22,0.0,0.0,18,0.00,,---,0.00,VWS V14.01,2013-01-22 00:37:00,
2013-01-21 19:42:00,41.9,1.5,29.53,NNE,22,0.0,3.1,18,0.00,,---,0.00,VWS V14.01,2013-01-22 00:42:00,
2013-01-21 19:47:00,41.5,1.2,29.53,NNE,22,0.0,0.0,18,0.00,,---,0.00,VWS V14.01,2013-01-22 00:47:00,
2013-01-21 19:52:00,40.5,0.3,29.53,NNE,22,0.0,0.0,18,0.00,,---,0.00,VWS V14.01,2013-01-22 00:52:00,
2013-01-21 19:57:00,39.7,-0.3,29.53,NNE,22,0.0,0.0,18,0.00,,---,0.00,VWS V14.01,2013-01-22 00:57:00,
2013-01-21 20:02:00,39.2,-0.7,29.53,NNE,22,0.0,0.0,18,0.00,,---,0.00,VWS V14.01,2013-01-22 01:02:00,
2013-01-21 20:07:00,38.7,0.0,29.53,NNE,22,0.0,0.0,19,0.00,,---,0.00,VWS V14.01,2013-01-22 01:07:00,
2013-01-21 20:12:00,38.1,-0.5,29.53,NNE,22,0.0,0.0,19,0.00,,---,0.00,VWS V14.01,2013-01-22 01:12:00,
2013-01-21 20:17:00,37.4,-1.1,29.53,NNE,22,0.0,0.0,19,0.00,,---,0.00,VWS V14.01,2013-01-22 01:17:00,
2013-01-21 20:22:00,37.0,-1.4,29.53,NNE,22,0.0,2.2,19,0.00,,---,0.00,VWS V14.01,2013-01-22 01:22:00,
2013-01-21 20:27:00,36.9,-1.5,29.53,NNE,22,0.0,2.2,19,0.00,,---,0.00,VWS V14.01,2013-01-22 01:27:00,
2013-01-21 20:32:00,36.5,-1.8,29.53,NNE,22,0.0,0.0,19,0.00,,---,0.00,VWS V14.01,2013-01-22 01:32:00,
2013-01-21 20:37:00,36.1,-2.1,29.53,NNE,22,0.0,0.0,19,0.00,,---,0.00,VWS V14.01,2013-01-22 01:37:00,
2013-01-21 20:42:00,35.8,-2.4,29.53,NNE,22,0.0,0.0,19,0.00,,---,0.00,VWS V14.01,2013-01-22 01:42:00,
2013-01-21 20:47:00,35.6,-2.6,29.53,NNE,22,0.0,0.0,19,0.00,,---,0.00,VWS V14.01,2013-01-22 01:47:00,
2013-01-21 20:52:00,35.1,-2.0,29.53,NNE,22,0.0,0.0,20,0.00,,---,0.00,VWS V14.01,2013-01-22 01:52:00,
2013-01-21 20:57:00,34.7,-2.3,29.53,NNE,22,0.0,0.0,20,0.00,,---,0.00,VWS V14.01,2013-01-22 01:57:00,
2013-01-21 21:02:00,34.3,-0.6,29.53,NNE,22,0.0,0.0,22,0.00,,---,0.00,VWS V14.01,2013-01-22 02:02:00,
2013-01-21 21:07:00,34.2,-0.7,29.53,NNE,22,0.0,0.0,22,0.00,,---,0.00,VWS V14.01,2013-01-22 02:07:00,
2013-01-21 21:12:00,33.8,-1.0,29.56,NNE,22,0.0,0.0,22,0.00,,---,0.00,VWS V14.01,2013-01-22 02:12:00,
2013-01-21 21:17:00,33.6,-0.2,29.56,NNE,22,0.0,0.0,23,0.00,,---,0.00,VWS V14.01,2013-01-22 02:17:00,
2013-01-21 21:22:00,33.1,-0.7,29.56,NNE,22,0.0,0.0,23,0.00,,---,0.00,VWS V14.01,2013-01-22 02:22:00,
2013-01-21 21:27:00,32.7,0.8,29.56,NNE,22,0.0,0.0,25,0.00,,---,0.00,VWS V14.01,2013-01-22 02:27:00,
2013-01-21 21:32:00,32.4,0.5,29.56,NNE,22,0.0,0.0,25,0.00,,---,0.00,VWS V14.01,2013-01-22 02:32:00,
2013-01-21 21:37:00,32.2,0.3,29.56,NNE,22,0.0,0.0,25,0.00,,---,0.00,VWS V14.01,2013-01-22 02:37:00,
2013-01-21 21:42:00,31.3,2.0,29.56,NNE,22,0.0,0.0,28,0.00,,---,0.00,VWS V14.01,2013-01-22 02:42:00,
2013-01-21 21:47:00,30.9,3.1,29.56,NNE,22,0.0,0.0,30,0.00,,---,0.00,VWS V14.01,2013-01-22 02:47:00,
2013-01-21 21:52:00,30.6,3.5,29.56,NNE,22,0.0,0.0,31,0.00,,---,0.00,VWS V14.01,2013-01-22 02:52:00,
2013-01-21 21:57:00,30.2,3.2,29.56,NNE,22,0.0,0.0,31,0.00,,---,0.00,VWS V14.01,2013-01-22 02:57:00,
2013-01-21 22:02:00,29.7,3.4,29.56,NNE,22,0.0,0.0,32,0.00,,---,0.00,VWS V14.01,2013-01-22 03:02:00,
2013-01-21 22:07:00,29.7,4.7,29.56,NNE,22,0.0,0.0,34,0.00,,---,0.00,VWS V14.01,2013-01-22 03:07:00,
2013-01-21 22:12:00,29.3,5.1,29.56,NNE,22,0.0,0.0,35,0.00,,---,0.00,VWS V14.01,2013-01-22 03:12:00,
2013-01-21 22:17:00,29.3,5.1,29.56,NNE,22,0.0,0.0,35,0.00,,---,0.00,VWS V14.01,2013-01-22 03:17:00,
2013-01-21 22:22:00,29.3,5.7,29.56,NNE,22,0.0,0.0,36,0.00,,---,0.00,VWS V14.01,2013-01-22 03:22:00,
2013-01-21 22:27:00,29.5,7.0,29.56,NNE,22,0.0,0.0,38,0.00,,---,0.00,VWS V14.01,2013-01-22 03:27:00,
2013-01-21 22:32:00,29.1,6.7,29.56,NNE,22,0.0,0.0,38,0.00,,---,0.00,VWS V14.01,2013-01-22 03:32:00,
2013-01-21 22:37:00,28.9,7.1,29.56,NNE,22,0.0,0.0,39,0.00,,---,0.00,VWS V14.01,2013-01-22 03:37:00,
2013-01-21 22:42:00,28.8,7.5,29.56,NNE,22,0.0,0.0,40,0.00,,---,0.00,VWS V14.01,2013-01-22 03:42:00,
2013-01-21 22:47:00,28.8,6.9,29.56,NNE,22,0.0,0.0,39,0.00,,---,0.00,VWS V14.01,2013-01-22 03:47:00,
2013-01-21 22:52:00,28.6,7.3,29.56,NNE,22,0.0,0.0,40,0.00,,---,0.00,VWS V14.01,2013-01-22 03:52:00,
2013-01-21 22:57:00,28.2,7.6,29.56,NNE,22,0.0,0.0,41,0.00,,---,0.00,VWS V14.01,2013-01-22 03:57:00,
2013-01-21 23:02:00,28.0,7.4,29.56,NNE,22,0.0,0.0,41,0.00,,---,0.00,VWS V14.01,2013-01-22 04:02:00,
2013-01-21 23:07:00,27.9,7.2,29.56,NNE,22,0.0,0.0,41,0.00,,---,0.00,VWS V14.01,2013-01-22 04:07:00,
2013-01-21 23:12:00,27.7,7.1,29.59,NNE,22,0.0,0.0,41,0.00,,---,0.00,VWS V14.01,2013-01-22 04:12:00,
2013-01-21 23:17:00,27.5,7.4,29.59,NNE,22,0.0,0.0,42,0.00,,---,0.00,VWS V14.01,2013-01-22 04:17:00,
2013-01-21 23:22:00,27.3,7.3,29.59,NNE,22,0.0,0.0,42,0.00,,---,0.00,VWS V14.01,2013-01-22 04:22:00,
2013-01-21 23:27:00,27.5,7.4,29.56,NNE,22,0.0,0.0,42,0.00,,---,0.00,VWS V14.01,2013-01-22 04:27:00,
2013-01-21 23:32:00,27.5,7.9,29.56,NNE,22,0.0,0.0,43,0.00,,---,0.00,VWS V14.01,2013-01-22 04:32:00,
2013-01-21 23:37:00,27.5,7.9,29.56,NNE,22,0.0,0.0,43,0.00,,---,0.00,VWS V14.01,2013-01-22 04:37:00,
2013-01-21 23:42:00,27.5,7.9,29.59,NNE,22,0.0,0.0,43,0.00,,---,0.00,VWS V14.01,2013-01-22 04:42:00,
2013-01-21 23:47:00,27.5,6.9,29.59,NNE,22,2.7,3.1,41,0.00,,---,0.00,VWS V14.01,2013-01-22 04:47:00,
2013-01-21 23:52:00,27.7,7.1,29.59,NNE,22,0.0,0.0,41,0.00,,---,0.00,VWS V14.01,2013-01-22 04:52:00,
2013-01-21 23:57:00,27.9,4.4,29.59,NNE,22,0.0,0.0,36,0.00,,---,0.00,VWS V14.01,2013-01-22 04:57:00,